Time,TemperatureF,DewpointF,PressureIn,WindDirection,WindDirectionDegrees,WindSpeedMPH,WindSpeedGustMPH,Humidity,HourlyPrecipIn,Conditions,Clouds,dailyrainin,SoftwareType,DateUTC
2013-01-27 00:00:00,18.9,2.8,29.75,North,0,0.0,0.0,49,0.00,,,0.02,WUHU216HW,2013-01-27 05:00:00,
2013-01-27 00:01:00,19.1,2.1,29.75,North,0,0.0,0.0,47,0.00,,,0.02,WUHU216HW,2013-01-27 05:01:00,
2013-01-27 00:02:00,19.1,1.6,29.75,North,0,0.0,0.0,46,0.00,,,0.00,WUHU216HW,2013-01-27 05:02:00,
2013-01-27 00:03:00,19.1,1.6,29.74,North,0,0.0,0.0,46,0.00,,,0.00,WUHU216HW,2013-01-27 05:03:00,
2013-01-27 00:08:00,19.1,-1.3,29.74,North,0,0.0,0.0,40,0.00,,,0.00,WUHU216HW,2013-01-27 05:08:00,
2013-01-27 00:13:00,19.3,0.4,29.74,North,0,0.0,0.0,43,0.00,,,0.00,WUHU216HW,2013-01-27 05:13:00,
2013-01-27 00:18:00,19.3,0.8,29.74,North,0,0.0,0.0,44,0.00,,,0.00,WUHU216HW,2013-01-27 05:18:00,
2013-01-27 00:23:00,19.4,-0.4,29.73,North,0,0.0,0.0,41,0.00,,,0.00,WUHU216HW,2013-01-27 05:23:00,
2013-01-27 00:28:00,19.3,-0.6,29.73,North,0,0.0,0.0,41,0.00,,,0.00,WUHU216HW,2013-01-27 05:28:00,
2013-01-27 00:33:00,19.8,-3.1,29.73,North,0,0.0,0.0,36,0.00,,,0.00,WUHU216HW,2013-01-27 05:33:00,
2013-01-27 00:38:00,19.8,-2.4,29.73,North,0,0.0,0.0,37,0.00,,,0.00,WUHU216HW,2013-01-27 05:38:00,
2013-01-27 00:43:00,20.2,-0.9,29.73,North,0,0.0,0.0,39,0.00,,,0.00,WUHU216HW,2013-01-27 05:43:00,
2013-01-27 00:49:00,20.0,1.4,29.73,North,0,0.0,0.0,44,0.00,,,0.00,WUHU216HW,2013-01-27 05:49:00,
2013-01-27 00:54:00,19.8,1.8,29.74,North,0,0.0,0.0,45,0.00,,,0.00,WUHU216HW,2013-01-27 05:54:00,
2013-01-27 00:59:00,19.6,2.5,29.74,North,0,0.0,0.0,47,0.00,,,0.00,WUHU216HW,2013-01-27 05:59:00,
2013-01-27 01:04:00,19.4,2.9,29.75,North,0,0.0,0.0,48,0.00,,,0.00,WUHU216HW,2013-01-27 06:04:00,
2013-01-27 01:09:00,19.1,3.9,29.74,North,0,0.0,0.0,51,0.00,,,0.00,WUHU216HW,2013-01-27 06:09:00,
2013-01-27 01:14:00,18.9,3.7,29.74,North,0,0.0,0.0,51,0.00,,,0.00,WUHU216HW,2013-01-27 06:14:00,
2013-01-27 01:19:00,18.9,2.8,29.74,North,0,0.0,0.0,49,0.00,,,0.00,WUHU216HW,2013-01-27 06:19:00,
2013-01-27 01:24:00,18.7,3.2,29.74,North,0,0.0,0.0,50,0.00,,,0.00,WUHU216HW,2013-01-27 06:24:00,
2013-01-27 01:29:00,18.5,3.3,29.75,North,0,0.0,0.0,51,0.00,,,0.00,WUHU216HW,2013-01-27 06:29:00,
2013-01-27 01:34:00,18.4,3.3,29.74,North,0,0.0,0.0,51,0.00,,,0.00,WUHU216HW,2013-01-27 06:34:00,
2013-01-27 01:39:00,18.2,3.1,29.74,North,0,0.0,0.0,51,0.00,,,0.00,WUHU216HW,2013-01-27 06:39:00,
2013-01-27 01:44:00,18.2,1.3,29.74,North,0,0.0,0.0,47,0.00,,,0.00,WUHU216HW,2013-01-27 06:44:00,
2013-01-27 01:49:00,18.2,3.1,29.74,North,0,0.0,0.0,51,0.00,,,0.00,WUHU216HW,2013-01-27 06:49:00,
2013-01-27 01:54:00,18.2,3.1,29.74,North,0,0.0,0.0,51,0.00,,,0.00,WUHU216HW,2013-01-27 06:54:00,
2013-01-27 01:59:00,18.2,3.1,29.75,North,0,0.0,0.0,51,0.00,,,0.00,WUHU216HW,2013-01-27 06:59:00,
2013-01-27 02:04:00,17.8,2.7,29.74,North,0,0.0,0.0,51,0.00,,,0.00,WUHU216HW,2013-01-27 07:04:00,
2013-01-27 02:13:00,17.5,2.8,29.74,North,0,0.0,0.0,52,0.00,,,0.00,WUHU216HW,2013-01-27 07:13:00,
2013-01-27 02:18:00,17.3,2.3,29.74,North,0,0.0,0.0,51,0.00,,,0.00,WUHU216HW,2013-01-27 07:18:00,
2013-01-27 02:23:00,17.5,2.0,29.74,North,0,0.0,0.0,50,0.00,,,0.00,WUHU216HW,2013-01-27 07:23:00,
2013-01-27 02:28:00,18.0,-0.8,29.75,North,0,0.0,0.0,43,0.00,,,0.00,WUHU216HW,2013-01-27 07:28:00,
2013-01-27 02:33:00,17.8,0.9,29.74,North,0,0.0,0.0,47,0.00,,,0.00,WUHU216HW,2013-01-27 07:33:00,
2013-01-27 02:38:00,18.0,-0.8,29.74,North,0,0.0,0.0,43,0.00,,,0.00,WUHU216HW,2013-01-27 07:38:00,
2013-01-27 02:43:00,18.4,-1.9,29.74,North,0,0.0,0.0,40,0.00,,,0.00,WUHU216HW,2013-01-27 07:43:00,
2013-01-27 02:48:00,18.7,-9.3,29.74,North,0,0.0,0.0,28,0.00,,,0.00,WUHU216HW,2013-01-27 07:48:00,
2013-01-27 02:53:00,19.3,-7.2,29.74,North,0,0.0,0.0,30,0.00,,,0.00,WUHU216HW,2013-01-27 07:53:00,
2013-01-27 02:59:00,19.4,-4.0,29.74,North,0,0.0,0.0,35,0.00,,,0.00,WUHU216HW,2013-01-27 07:59:00,
2013-01-27 03:04:00,19.6,-3.8,29.74,North,0,0.0,0.0,35,0.00,,,0.00,WUHU216HW,2013-01-27 08:04:00,
2013-01-27 03:09:00,19.8,-3.1,29.74,North,0,0.0,0.0,36,0.00,,,0.00,WUHU216HW,2013-01-27 08:09:00,
2013-01-27 03:14:00,19.8,-2.4,29.74,North,0,0.0,0.0,37,0.00,,,0.00,WUHU216HW,2013-01-27 08:14:00,
2013-01-27 03:19:00,20.0,-2.9,29.73,North,0,0.0,0.0,36,0.00,,,0.00,WUHU216HW,2013-01-27 08:19:00,
2013-01-27 03:24:00,20.0,-2.9,29.73,North,0,0.0,0.0,36,0.00,,,0.00,WUHU216HW,2013-01-27 08:24:00,
2013-01-27 03:29:00,20.0,-2.2,29.73,North,0,0.0,0.0,37,0.00,,,0.00,WUHU216HW,2013-01-27 08:29:00,
2013-01-27 03:34:00,20.0,-2.2,29.73,North,0,0.0,0.0,37,0.00,,,0.00,WUHU216HW,2013-01-27 08:34:00,
2013-01-27 03:39:00,20.0,-1.6,29.73,North,0,0.0,0.0,38,0.00,,,0.00,WUHU216HW,2013-01-27 08:39:00,
2013-01-27 03:44:00,20.0,-1.0,29.73,North,0,0.0,0.0,39,0.00,,,0.00,WUHU216HW,2013-01-27 08:44:00,
2013-01-27 03:49:00,20.0,-3.5,29.73,North,0,0.0,0.0,35,0.00,,,0.00,WUHU216HW,2013-01-27 08:49:00,
2013-01-27 03:54:00,20.0,-2.9,29.73,North,0,0.0,0.0,36,0.00,,,0.00,WUHU216HW,2013-01-27 08:54:00,
2013-01-27 04:00:00,20.2,-3.3,29.73,North,0,0.0,0.0,35,0.00,,,0.00,WUHU216HW,2013-01-27 09:00:00,
2013-01-27 04:05:00,20.3,-3.8,29.73,North,0,0.0,0.0,34,0.00,,,0.00,WUHU216HW,2013-01-27 09:05:00,
2013-01-27 04:10:00,20.3,-3.1,29.73,North,0,0.0,0.0,35,0.00,,,0.00,WUHU216HW,2013-01-27 09:10:00,
2013-01-27 04:15:00,20.3,-4.9,29.73,North,0,0.0,0.0,32,0.00,,,0.00,WUHU216HW,2013-01-27 09:15:00,
2013-01-27 04:20:00,20.3,-3.8,29.73,North,0,0.0,0.0,34,0.00,,,0.00,WUHU216HW,2013-01-27 09:20:00,
2013-01-27 04:25:00,20.2,-3.3,29.73,North,0,0.0,0.0,35,0.00,,,0.00,WUHU216HW,2013-01-27 09:25:00,
2013-01-27 04:30:00,20.2,-3.3,29.73,North,0,0.0,0.0,35,0.00,,,0.00,WUHU216HW,2013-01-27 09:30:00,
2013-01-27 04:35:00,20.0,-2.2,29.73,North,0,0.0,0.0,37,0.00,,,0.00,WUHU216HW,2013-01-27 09:35:00,
2013-01-27 04:40:00,19.8,0.4,29.73,North,0,0.0,0.0,42,0.00,,,0.00,WUHU216HW,2013-01-27 09:40:00,
2013-01-27 04:45:00,19.4,0.6,29.73,North,0,0.0,0.0,43,0.00,,,0.00,WUHU216HW,2013-01-27 09:45:00,
2013-01-27 04:50:00,19.3,0.8,29.73,North,0,0.0,0.0,44,0.00,,,0.00,WUHU216HW,2013-01-27 09:50:00,
2013-01-27 04:55:00,19.1,0.6,29.73,North,0,0.0,0.0,44,0.00,,,0.00,WUHU216HW,2013-01-27 09:55:00,
2013-01-27 05:01:00,19.1,0.6,29.72,North,0,0.0,0.0,44,0.00,,,0.00,WUHU216HW,2013-01-27 10:01:00,
2013-01-27 05:05:00,19.3,0.4,29.73,North,0,0.0,0.0,43,0.00,,,0.00,WUHU216HW,2013-01-27 10:05:00,
2013-01-27 05:11:00,19.3,0.4,29.73,North,0,0.0,0.0,43,0.00,,,0.00,WUHU216HW,2013-01-27 10:11:00,
2013-01-27 05:16:00,19.3,-1.1,29.73,North,0,0.0,0.0,40,0.00,,,0.00,WUHU216HW,2013-01-27 10:16:00,
2013-01-27 05:21:00,19.6,-5.7,29.73,North,0,0.0,0.0,32,0.00,,,0.00,WUHU216HW,2013-01-27 10:21:00,
2013-01-27 05:26:00,19.8,-3.1,29.72,North,0,0.0,0.0,36,0.00,,,0.00,WUHU216HW,2013-01-27 10:26:00,
2013-01-27 05:31:00,20.0,-6.6,29.72,North,0,0.0,0.0,30,0.00,,,0.00,WUHU216HW,2013-01-27 10:31:00,
2013-01-27 05:36:00,20.2,-6.4,29.72,North,0,0.0,0.0,30,0.00,,,0.00,WUHU216HW,2013-01-27 10:36:00,
2013-01-27 05:41:00,20.3,-7.0,29.72,North,0,0.0,0.0,29,0.00,,,0.00,WUHU216HW,2013-01-27 10:41:00,
2013-01-27 05:46:00,20.3,-7.8,29.72,North,0,0.0,0.0,28,0.00,,,0.00,WUHU216HW,2013-01-27 10:46:00,
2013-01-27 05:51:00,20.3,-7.8,29.72,North,0,0.0,0.0,28,0.00,,,0.00,WUHU216HW,2013-01-27 10:51:00,
2013-01-27 05:56:00,20.5,-7.6,29.72,North,0,0.0,0.0,28,0.00,,,0.00,WUHU216HW,2013-01-27 10:56:00,
2013-01-27 06:02:00,20.5,-7.6,29.71,North,0,0.0,0.0,28,0.00,,,0.00,WUHU216HW,2013-01-27 11:02:00,
2013-01-27 06:07:00,20.5,-7.6,29.72,North,0,0.0,0.0,28,0.00,,,0.00,WUHU216HW,2013-01-27 11:07:00,
2013-01-27 06:12:00,20.7,-6.7,29.72,North,0,0.0,0.0,29,0.00,,,0.00,WUHU216HW,2013-01-27 11:12:00,
2013-01-27 06:17:00,20.7,-6.7,29.72,North,0,0.0,0.0,29,0.00,,,0.00,WUHU216HW,2013-01-27 11:17:00,
2013-01-27 06:22:00,20.9,-6.6,29.72,North,0,0.0,0.0,29,0.00,,,0.00,WUHU216HW,2013-01-27 11:22:00,
2013-01-27 06:27:00,20.9,-5.8,29.72,North,0,0.0,0.0,30,0.00,,,0.00,WUHU216HW,2013-01-27 11:27:00,
2013-01-27 06:32:00,21.1,-5.6,29.72,North,0,0.0,0.0,30,0.00,,,0.00,WUHU216HW,2013-01-27 11:32:00,
2013-01-27 06:37:00,21.2,-4.8,29.72,North,0,0.0,0.0,31,0.00,,,0.00,WUHU216HW,2013-01-27 11:37:00,
2013-01-27 06:42:00,21.2,-4.8,29.72,North,0,0.0,0.0,31,0.00,,,0.00,WUHU216HW,2013-01-27 11:42:00,
2013-01-27 06:47:00,21.2,-5.4,29.72,North,0,0.0,0.0,30,0.00,,,0.00,WUHU216HW,2013-01-27 11:47:00,
2013-01-27 06:52:00,21.2,-4.8,29.72,North,0,0.0,0.0,31,0.00,,,0.00,WUHU216HW,2013-01-27 11:52:00,
2013-01-27 06:57:00,21.2,-4.8,29.72,North,0,0.0,0.0,31,0.00,,,0.00,WUHU216HW,2013-01-27 11:57:00,
2013-01-27 07:02:00,21.2,-4.8,29.72,North,0,0.0,0.0,31,0.00,,,0.00,WUHU216HW,2013-01-27 12:02:00,
2013-01-27 07:07:00,21.2,-4.1,29.72,North,0,0.0,0.0,32,0.00,,,0.00,WUHU216HW,2013-01-27 12:07:00,
2013-01-27 07:13:00,21.2,-4.1,29.72,North,0,0.0,0.0,32,0.00,,,0.00,WUHU216HW,2013-01-27 12:13:00,
2013-01-27 07:18:00,21.1,-5.6,29.73,North,0,0.0,0.0,30,0.00,,,0.00,WUHU216HW,2013-01-27 12:18:00,
2013-01-27 07:23:00,21.2,-7.9,29.72,North,0,0.0,0.0,27,0.00,,,0.00,WUHU216HW,2013-01-27 12:23:00,
2013-01-27 07:28:00,21.2,-5.4,29.73,North,0,0.0,0.0,30,0.00,,,0.00,WUHU216HW,2013-01-27 12:28:00,
2013-01-27 07:33:00,21.2,-5.4,29.73,North,0,0.0,0.0,30,0.00,,,0.00,WUHU216HW,2013-01-27 12:33:00,
2013-01-27 07:38:00,21.2,-5.4,29.74,North,0,0.0,0.0,30,0.00,,,0.00,WUHU216HW,2013-01-27 12:38:00,
2013-01-27 07:43:00,21.4,-5.2,29.74,North,0,0.0,0.0,30,0.00,,,0.00,WUHU216HW,2013-01-27 12:43:00,
2013-01-27 07:48:00,21.4,-4.6,29.74,North,0,0.0,0.0,31,0.00,,,0.00,WUHU216HW,2013-01-27 12:48:00,
2013-01-27 07:53:00,21.6,-4.5,29.74,North,0,0.0,0.0,31,0.00,,,0.00,WUHU216HW,2013-01-27 12:53:00,
2013-01-27 07:59:00,21.6,-5.0,29.75,North,0,0.0,0.0,30,0.00,,,0.00,WUHU216HW,2013-01-27 12:59:00,
2013-01-27 08:04:00,21.8,-4.9,29.74,North,0,0.0,0.0,30,0.00,,,0.00,WUHU216HW,2013-01-27 13:04:00,
2013-01-27 08:09:00,22.0,-5.6,29.74,North,0,0.0,0.0,29,0.00,,,0.00,WUHU216HW,2013-01-27 13:09:00,
2013-01-27 08:14:00,22.0,-5.6,29.74,North,0,0.0,0.0,29,0.00,,,0.00,WUHU216HW,2013-01-27 13:14:00,
2013-01-27 08:19:00,22.3,-6.1,29.74,North,0,0.0,0.0,28,0.00,,,0.00,WUHU216HW,2013-01-27 13:19:00,
2013-01-27 08:24:00,22.5,-3.7,29.74,North,0,0.0,0.0,31,0.00,,,0.00,WUHU216HW,2013-01-27 13:24:00,
2013-01-27 08:29:00,22.7,-2.9,29.73,North,0,0.0,0.0,32,0.00,,,0.00,WUHU216HW,2013-01-27 13:29:00,
2013-01-27 08:34:00,22.9,-2.7,29.72,North,0,0.0,0.0,32,0.00,,,0.00,WUHU216HW,2013-01-27 13:34:00,
2013-01-27 08:39:00,23.0,-2.5,29.72,North,0,0.0,0.0,32,0.00,,,0.00,WUHU216HW,2013-01-27 13:39:00,
2013-01-27 08:44:00,23.2,-1.2,29.72,North,0,0.0,0.0,34,0.00,,,0.00,WUHU216HW,2013-01-27 13:44:00,
2013-01-27 08:49:00,23.4,-1.0,29.72,North,0,0.0,0.0,34,0.00,,,0.00,WUHU216HW,2013-01-27 13:49:00,
2013-01-27 08:54:00,23.8,-0.7,29.72,North,0,0.0,0.0,34,0.00,,,0.00,WUHU216HW,2013-01-27 13:54:00,
2013-01-27 09:00:00,24.1,0.9,29.72,North,0,0.0,0.0,36,0.00,,,0.00,WUHU216HW,2013-01-27 14:00:00,
2013-01-27 09:05:00,24.1,0.9,29.71,North,0,0.0,0.0,36,0.00,,,0.00,WUHU216HW,2013-01-27 14:05:00,
2013-01-27 09:10:00,24.3,2.3,29.71,North,0,0.0,0.0,38,0.00,,,0.00,WUHU216HW,2013-01-27 14:10:00,
2013-01-27 09:15:00,24.5,2.4,29.71,North,0,0.0,0.0,38,0.00,,,0.00,WUHU216HW,2013-01-27 14:15:00,
2013-01-27 09:20:00,24.8,2.2,29.72,North,0,0.0,0.0,37,0.00,,,0.00,WUHU216HW,2013-01-27 14:20:00,
2013-01-27 09:25:00,25.0,3.5,29.72,North,0,0.0,0.0,39,0.00,,,0.00,WUHU216HW,2013-01-27 14:25:00,
2013-01-27 09:30:00,25.2,4.3,29.72,North,0,0.0,0.0,40,0.00,,,0.00,WUHU216HW,2013-01-27 14:30:00,
2013-01-27 09:35:00,25.4,5.0,29.72,North,0,0.0,0.0,41,0.00,,,0.00,WUHU216HW,2013-01-27 14:35:00,
2013-01-27 09:40:00,25.7,5.2,29.72,North,0,0.0,0.0,41,0.00,,,0.00,WUHU216HW,2013-01-27 14:40:00,
2013-01-27 09:45:00,25.9,6.8,29.72,North,0,0.0,0.0,44,0.00,,,0.00,WUHU216HW,2013-01-27 14:45:00,
2013-01-27 09:50:00,26.3,7.2,29.72,North,0,0.0,0.0,44,0.00,,,0.00,WUHU216HW,2013-01-27 14:50:00,
2013-01-27 09:55:00,26.3,6.2,29.72,North,0,0.0,0.0,42,0.00,,,0.00,WUHU216HW,2013-01-27 14:55:00,
2013-01-27 10:00:00,26.5,6.8,29.71,North,0,0.0,0.0,43,0.00,,,0.00,WUHU216HW,2013-01-27 15:00:00,
2013-01-27 10:05:00,26.8,6.8,29.72,North,0,0.0,0.0,42,0.00,,,0.00,WUHU216HW,2013-01-27 15:05:00,
2013-01-27 10:10:00,27.2,7.6,29.71,North,0,0.0,0.0,43,0.00,,,0.00,WUHU216HW,2013-01-27 15:10:00,
2013-01-27 10:15:00,27.7,8.0,29.71,North,0,0.0,0.0,43,0.00,,,0.00,WUHU216HW,2013-01-27 15:15:00,
2013-01-27 10:20:00,27.9,9.7,29.72,North,0,0.0,0.0,46,0.00,,,0.00,WUHU216HW,2013-01-27 15:20:00,
2013-01-27 10:26:00,28.1,9.4,29.72,North,0,0.0,0.0,45,0.00,,,0.00,WUHU216HW,2013-01-27 15:26:00,
2013-01-27 10:31:00,28.3,11.1,29.72,North,0,0.0,0.0,48,0.00,,,0.00,WUHU216HW,2013-01-27 15:31:00,
2013-01-27 10:36:00,28.4,10.3,29.72,North,0,0.0,0.0,46,0.00,,,0.00,WUHU216HW,2013-01-27 15:36:00,
2013-01-27 10:41:00,28.6,9.9,29.72,North,0,0.0,0.0,45,0.00,,,0.00,WUHU216HW,2013-01-27 15:41:00,
2013-01-27 10:46:00,28.8,10.1,29.72,North,0,0.0,0.0,45,0.00,,,0.00,WUHU216HW,2013-01-27 15:46:00,
2013-01-27 10:51:00,29.2,9.9,29.72,North,0,0.0,0.0,44,0.00,,,0.00,WUHU216HW,2013-01-27 15:51:00,
2013-01-27 10:56:00,29.2,11.3,29.72,North,0,0.0,0.0,47,0.00,,,0.00,WUHU216HW,2013-01-27 15:56:00,
2013-01-27 11:01:00,29.5,10.7,29.73,North,0,0.0,0.0,45,0.00,,,0.00,WUHU216HW,2013-01-27 16:01:00,
2013-01-27 11:06:00,30.1,11.7,29.73,North,0,0.0,0.0,46,0.00,,,0.00,WUHU216HW,2013-01-27 16:06:00,
2013-01-27 11:11:00,30.4,13.1,29.73,North,0,0.0,0.0,48,0.00,,,0.00,WUHU216HW,2013-01-27 16:11:00,
2013-01-27 11:16:00,30.2,13.9,29.73,North,0,0.0,0.0,50,0.00,,,0.00,WUHU216HW,2013-01-27 16:16:00,
2013-01-27 11:22:00,30.6,12.7,29.73,North,0,0.0,0.0,47,0.00,,,0.00,WUHU216HW,2013-01-27 16:22:00,
2013-01-27 11:27:00,30.8,14.3,29.72,North,0,0.0,0.0,50,0.00,,,0.00,WUHU216HW,2013-01-27 16:27:00,
2013-01-27 11:32:00,31.0,14.1,29.72,North,0,0.0,0.0,49,0.00,,,0.00,WUHU216HW,2013-01-27 16:32:00,
2013-01-27 11:37:00,31.1,15.5,29.72,North,0,0.0,0.0,52,0.00,,,0.00,WUHU216HW,2013-01-27 16:37:00,
2013-01-27 11:42:00,31.1,14.7,29.71,North,0,0.0,0.0,50,0.00,,,0.00,WUHU216HW,2013-01-27 16:42:00,
2013-01-27 11:47:00,31.3,15.3,29.71,North,0,0.0,0.0,51,0.00,,,0.00,WUHU216HW,2013-01-27 16:47:00,
2013-01-27 11:52:00,31.3,14.9,29.71,North,0,0.0,0.0,50,0.00,,,0.00,WUHU216HW,2013-01-27 16:52:00,
2013-01-27 11:57:00,31.3,15.3,29.71,North,0,0.0,0.0,51,0.00,,,0.00,WUHU216HW,2013-01-27 16:57:00,
2013-01-27 12:02:00,31.9,16.2,29.71,North,0,0.0,0.0,52,0.00,,,0.00,WUHU216HW,2013-01-27 17:02:00,
2013-01-27 12:07:00,32.2,15.7,29.71,North,0,0.0,0.0,50,0.00,,,0.00,WUHU216HW,2013-01-27 17:07:00,
2013-01-27 12:12:00,32.6,17.3,29.71,North,0,0.0,0.0,53,0.00,,,0.00,WUHU216HW,2013-01-27 17:12:00,
2013-01-27 12:17:00,32.8,17.8,29.70,North,0,0.0,0.0,54,0.00,,,0.00,WUHU216HW,2013-01-27 17:17:00,
2013-01-27 12:22:00,32.6,18.1,29.69,North,0,0.0,0.0,55,0.00,,,0.00,WUHU216HW,2013-01-27 17:22:00,
2013-01-27 12:27:00,32.6,18.1,29.69,North,0,0.0,0.0,55,0.00,,,0.00,WUHU216HW,2013-01-27 17:27:00,
2013-01-27 12:32:00,32.9,18.9,29.69,North,0,0.0,0.0,56,0.00,,,0.00,WUHU216HW,2013-01-27 17:32:00,
2013-01-27 12:37:00,33.1,19.1,29.69,North,0,0.0,0.0,56,0.00,,,0.00,WUHU216HW,2013-01-27 17:37:00,
2013-01-27 12:42:00,33.7,19.5,29.68,North,0,0.0,0.0,56,0.00,,,0.00,WUHU216HW,2013-01-27 17:42:00,
2013-01-27 12:48:00,34.0,19.9,29.68,North,0,0.0,0.0,56,0.00,,,0.00,WUHU216HW,2013-01-27 17:48:00,
2013-01-27 12:53:00,34.0,20.7,29.68,North,0,0.0,0.0,58,0.00,,,0.00,WUHU216HW,2013-01-27 17:53:00,
2013-01-27 12:58:00,34.0,20.4,29.68,North,0,0.0,0.0,57,0.00,,,0.00,WUHU216HW,2013-01-27 17:58:00,
2013-01-27 13:03:00,34.2,20.5,29.68,North,0,0.0,0.0,57,0.00,,,0.00,WUHU216HW,2013-01-27 18:03:00,
2013-01-27 13:08:00,33.7,20.4,29.68,North,0,0.0,0.0,58,0.00,,,0.00,WUHU216HW,2013-01-27 18:08:00,
2013-01-27 13:13:00,33.5,19.8,29.68,North,0,0.0,0.0,57,0.00,,,0.00,WUHU216HW,2013-01-27 18:13:00,
2013-01-27 13:18:00,33.3,19.2,29.67,North,0,0.0,0.0,56,0.00,,,0.00,WUHU216HW,2013-01-27 18:18:00,
2013-01-27 13:23:00,33.5,19.4,29.66,North,0,0.0,0.0,56,0.00,,,0.00,WUHU216HW,2013-01-27 18:23:00,
2013-01-27 13:28:00,33.5,19.4,29.65,North,0,0.0,0.0,56,0.00,,,0.00,WUHU216HW,2013-01-27 18:28:00,
2013-01-27 13:33:00,33.5,19.4,29.65,North,0,0.0,0.0,56,0.00,,,0.00,WUHU216HW,2013-01-27 18:33:00,
2013-01-27 13:38:00,34.0,19.9,29.65,North,0,0.0,0.0,56,0.00,,,0.00,WUHU216HW,2013-01-27 18:38:00,
2013-01-27 13:43:00,34.2,20.5,29.65,North,0,0.0,0.0,57,0.00,,,0.00,WUHU216HW,2013-01-27 18:43:00,
2013-01-27 13:48:00,34.0,20.4,29.64,North,0,0.0,0.0,57,0.00,,,0.00,WUHU216HW,2013-01-27 18:48:00,
2013-01-27 13:53:00,34.0,19.9,29.64,North,0,0.0,0.0,56,0.00,,,0.00,WUHU216HW,2013-01-27 18:53:00,
2013-01-27 13:58:00,33.5,19.4,29.63,North,0,0.0,0.0,56,0.00,,,0.00,WUHU216HW,2013-01-27 18:58:00,
2013-01-27 14:03:00,33.5,19.4,29.63,North,0,0.0,0.0,56,0.00,,,0.00,WUHU216HW,2013-01-27 19:03:00,
2013-01-27 14:08:00,33.5,19.4,29.63,North,0,0.0,0.0,56,0.00,,,0.00,WUHU216HW,2013-01-27 19:08:00,
2013-01-27 14:13:00,33.7,19.5,29.62,North,0,0.0,0.0,56,0.00,,,0.00,WUHU216HW,2013-01-27 19:13:00,
2013-01-27 14:19:00,33.8,19.3,29.61,North,0,0.0,0.0,55,0.00,,,0.00,WUHU216HW,2013-01-27 19:19:00,
2013-01-27 14:24:00,34.2,19.6,29.61,North,0,0.0,0.0,55,0.00,,,0.00,WUHU216HW,2013-01-27 19:24:00,
2013-01-27 14:29:00,34.2,20.1,29.61,North,0,0.0,0.0,56,0.00,,,0.00,WUHU216HW,2013-01-27 19:29:00,
2013-01-27 14:34:00,34.4,20.3,29.61,North,0,0.0,0.0,56,0.00,,,0.00,WUHU216HW,2013-01-27 19:34:00,
2013-01-27 14:39:00,34.6,20.4,29.60,North,0,0.0,0.0,56,0.00,,,0.00,WUHU216HW,2013-01-27 19:39:00,
2013-01-27 14:44:00,34.9,21.3,29.60,North,0,0.0,0.0,57,0.00,,,0.00,WUHU216HW,2013-01-27 19:44:00,
2013-01-27 14:49:00,34.9,21.3,29.59,North,0,0.0,0.0,57,0.00,,,0.00,WUHU216HW,2013-01-27 19:49:00,
2013-01-27 14:54:00,35.1,21.8,29.59,North,0,0.0,0.0,58,0.00,,,0.00,WUHU216HW,2013-01-27 19:54:00,
2013-01-27 14:59:00,35.3,22.0,29.59,North,0,0.0,0.0,58,0.00,,,0.00,WUHU216HW,2013-01-27 19:59:00,
2013-01-27 15:04:00,35.3,22.4,29.58,North,0,0.0,0.0,59,0.00,,,0.00,WUHU216HW,2013-01-27 20:04:00,
2013-01-27 15:09:00,35.1,22.2,29.58,North,0,0.0,0.0,59,0.00,,,0.00,WUHU216HW,2013-01-27 20:09:00,
2013-01-27 15:14:00,35.3,22.4,29.57,North,0,0.0,0.0,59,0.00,,,0.00,WUHU216HW,2013-01-27 20:14:00,
2013-01-27 15:19:00,35.6,22.3,29.57,North,0,0.0,0.0,58,0.00,,,0.00,WUHU216HW,2013-01-27 20:19:00,
2013-01-27 15:24:00,35.6,22.8,29.57,North,0,0.0,0.0,59,0.00,,,0.00,WUHU216HW,2013-01-27 20:24:00,
2013-01-27 15:29:00,35.6,22.8,29.57,North,0,0.0,0.0,59,0.00,,,0.00,WUHU216HW,2013-01-27 20:29:00,
2013-01-27 15:34:00,35.6,22.8,29.57,North,0,0.0,0.0,59,0.00,,,0.00,WUHU216HW,2013-01-27 20:34:00,
2013-01-27 15:39:00,35.6,22.8,29.56,North,0,0.0,0.0,59,0.00,,,0.00,WUHU216HW,2013-01-27 20:39:00,
2013-01-27 15:44:00,35.6,22.8,29.57,North,0,0.0,0.0,59,0.00,,,0.00,WUHU216HW,2013-01-27 20:44:00,
2013-01-27 15:49:00,35.3,22.0,29.56,North,0,0.0,0.0,58,0.00,,,0.00,WUHU216HW,2013-01-27 20:49:00,
2013-01-27 15:55:00,35.3,22.0,29.56,North,0,0.0,0.0,58,0.00,,,0.00,WUHU216HW,2013-01-27 20:55:00,
2013-01-27 16:00:00,35.5,22.1,29.56,North,0,0.0,0.0,58,0.00,,,0.00,WUHU216HW,2013-01-27 21:00:00,
2013-01-27 16:05:00,35.5,22.1,29.56,North,0,0.0,0.0,58,0.00,,,0.00,WUHU216HW,2013-01-27 21:05:00,
2013-01-27 16:10:00,35.5,22.1,29.56,North,0,0.0,0.0,58,0.00,,,0.00,WUHU216HW,2013-01-27 21:10:00,
2013-01-27 16:15:00,35.5,22.1,29.56,North,0,0.0,0.0,58,0.00,,,0.00,WUHU216HW,2013-01-27 21:15:00,
2013-01-27 16:20:00,35.5,22.6,29.55,North,0,0.0,0.0,59,0.00,,,0.00,WUHU216HW,2013-01-27 21:20:00,
2013-01-27 16:25:00,35.5,22.1,29.55,North,0,0.0,0.0,58,0.00,,,0.00,WUHU216HW,2013-01-27 21:25:00,
2013-01-27 16:30:00,35.5,22.1,29.55,North,0,0.0,0.0,58,0.00,,,0.00,WUHU216HW,2013-01-27 21:30:00,
2013-01-27 16:35:00,35.5,22.6,29.55,North,0,0.0,0.0,59,0.00,,,0.00,WUHU216HW,2013-01-27 21:35:00,
2013-01-27 16:40:00,35.6,22.3,29.55,North,0,0.0,0.0,58,0.00,,,0.00,WUHU216HW,2013-01-27 21:40:00,
2013-01-27 16:45:00,35.6,22.3,29.55,North,0,0.0,0.0,58,0.00,,,0.00,WUHU216HW,2013-01-27 21:45:00,
2013-01-27 16:50:00,35.6,22.0,29.55,North,0,0.0,0.0,57,0.00,,,0.00,WUHU216HW,2013-01-27 21:50:00,
2013-01-27 16:55:00,35.5,21.3,29.55,North,0,0.0,0.0,56,0.00,,,0.00,WUHU216HW,2013-01-27 21:55:00,
2013-01-27 17:00:00,35.5,21.3,29.55,North,0,0.0,0.0,56,0.00,,,0.00,WUHU216HW,2013-01-27 22:00:00,
2013-01-27 17:05:00,35.5,21.3,29.54,North,0,0.0,0.0,56,0.00,,,0.00,WUHU216HW,2013-01-27 22:05:00,
2013-01-27 17:10:00,35.5,21.3,29.54,North,0,0.0,0.0,56,0.00,,,0.00,WUHU216HW,2013-01-27 22:10:00,
2013-01-27 17:15:00,35.5,20.9,29.54,North,0,0.0,0.0,55,0.00,,,0.00,WUHU216HW,2013-01-27 22:15:00,
2013-01-27 17:20:00,35.5,21.3,29.54,North,0,0.0,0.0,56,0.00,,,0.00,WUHU216HW,2013-01-27 22:20:00,
2013-01-27 17:26:00,35.5,21.3,29.54,North,0,0.0,0.0,56,0.00,,,0.00,WUHU216HW,2013-01-27 22:26:00,
2013-01-27 17:30:00,35.5,20.9,29.53,North,0,0.0,0.0,55,0.00,,,0.00,WUHU216HW,2013-01-27 22:30:00,
2013-01-27 17:35:00,35.6,21.5,29.53,North,0,0.0,0.0,56,0.00,,,0.00,WUHU216HW,2013-01-27 22:35:00,
2013-01-27 17:40:00,35.6,20.2,29.53,North,0,0.0,0.0,53,0.00,,,0.00,WUHU216HW,2013-01-27 22:40:00,
2013-01-27 17:45:00,35.5,20.0,29.53,North,0,0.0,0.0,53,0.00,,,0.00,WUHU216HW,2013-01-27 22:45:00,
2013-01-27 17:50:00,35.5,19.6,29.53,North,0,0.0,0.0,52,0.00,,,0.00,WUHU216HW,2013-01-27 22:50:00,
2013-01-27 17:55:00,35.5,20.0,29.53,North,0,0.0,0.0,53,0.00,,,0.00,WUHU216HW,2013-01-27 22:55:00,
2013-01-27 18:01:00,35.6,20.2,29.54,North,0,0.0,0.0,53,0.00,,,0.00,WUHU216HW,2013-01-27 23:01:00,
2013-01-27 18:06:00,35.6,19.8,29.54,North,0,0.0,0.0,52,0.00,,,0.00,WUHU216HW,2013-01-27 23:06:00,
2013-01-27 18:11:00,35.6,19.4,29.54,North,0,0.0,0.0,51,0.00,,,0.00,WUHU216HW,2013-01-27 23:11:00,
2013-01-27 18:16:00,35.5,17.6,29.54,North,0,0.0,0.0,48,0.00,,,0.00,WUHU216HW,2013-01-27 23:16:00,
2013-01-27 18:21:00,35.5,17.2,29.54,North,0,0.0,0.0,47,0.00,,,0.00,WUHU216HW,2013-01-27 23:21:00,
2013-01-27 18:26:00,35.5,15.1,29.54,North,0,0.0,0.0,43,0.00,,,0.00,WUHU216HW,2013-01-27 23:26:00,
2013-01-27 18:31:00,35.5,12.9,29.54,North,0,0.0,0.0,39,0.00,,,0.00,WUHU216HW,2013-01-27 23:31:00,
2013-01-27 18:36:00,35.3,8.2,29.54,North,0,0.0,0.0,32,0.00,,,0.00,WUHU216HW,2013-01-27 23:36:00,
2013-01-27 18:41:00,35.3,6.9,29.54,North,0,0.0,0.0,30,0.01,,,0.00,WUHU216HW,2013-01-27 23:41:00,
2013-01-27 18:46:00,35.1,6.8,29.54,North,0,0.0,0.0,30,0.01,,,0.01,WUHU216HW,2013-01-27 23:46:00,
2013-01-27 18:51:00,35.1,-1.1,29.54,North,0,0.0,0.0,21,0.01,,,0.01,WUHU216HW,2013-01-27 23:51:00,
2013-01-27 18:56:00,35.1,-7.5,29.53,North,0,0.0,0.0,16,0.01,,,0.01,WUHU216HW,2013-01-27 23:56:00,
2013-01-27 19:01:00,35.1,-16.1,29.54,North,0,0.0,0.0,7,0.01,,,0.01,WUHU216HW,2013-01-28 00:01:00,
2013-01-27 19:07:00,34.9,-16.2,29.54,North,0,0.0,0.0,10,0.02,,,0.01,WUHU216HW,2013-01-28 00:07:00,
2013-01-27 19:12:00,34.9,-13.4,29.55,North,0,0.0,0.0,12,0.02,,,0.02,WUHU216HW,2013-01-28 00:12:00,
2013-01-27 19:17:00,34.9,-10.6,29.56,North,0,0.0,0.0,14,0.02,,,0.02,WUHU216HW,2013-01-28 00:17:00,
2013-01-27 19:22:00,34.7,-10.7,29.56,North,0,0.0,0.0,14,0.04,,,0.03,WUHU216HW,2013-01-28 00:22:00,
2013-01-27 19:27:00,34.6,-5.2,29.57,North,0,0.0,0.0,18,0.04,,,0.04,WUHU216HW,2013-01-28 00:27:00,
2013-01-27 19:32:00,34.6,-5.2,29.56,North,0,0.0,0.0,18,0.05,,,0.05,WUHU216HW,2013-01-28 00:32:00,
2013-01-27 19:37:00,34.6,-16.6,29.56,North,0,0.0,0.0,7,0.06,,,0.06,WUHU216HW,2013-01-28 00:37:00,
2013-01-27 19:42:00,34.4,-15.3,29.56,North,0,0.0,0.0,11,0.07,,,0.07,WUHU216HW,2013-01-28 00:42:00,
2013-01-27 19:47:00,34.4,-16.6,29.56,North,0,0.0,0.0,1,0.08,,,0.09,WUHU216HW,2013-01-28 00:47:00,
2013-01-27 19:52:00,34.2,-16.8,29.55,North,0,0.0,0.0,6,0.09,,,0.10,WUHU216HW,2013-01-28 00:52:00,
2013-01-27 19:57:00,34.2,-16.8,29.55,North,0,0.0,0.0,1,0.10,,,0.11,WUHU216HW,2013-01-28 00:57:00,
2013-01-27 20:02:00,34.2,-16.8,29.54,North,0,0.0,0.0,1,0.11,,,0.12,WUHU216HW,2013-01-28 01:02:00,
2013-01-27 20:07:00,34.2,-16.8,29.53,North,0,0.0,0.0,1,0.11,,,0.13,WUHU216HW,2013-01-28 01:07:00,
2013-01-27 20:12:00,34.2,-16.8,29.53,North,0,0.0,0.0,1,0.12,,,0.15,WUHU216HW,2013-01-28 01:12:00,
2013-01-27 20:17:00,34.0,-16.9,29.52,North,0,0.0,0.0,1,0.12,,,0.15,WUHU216HW,2013-01-28 01:17:00,
2013-01-27 20:22:00,33.8,-17.1,29.52,North,0,0.0,0.0,1,0.12,,,0.15,WUHU216HW,2013-01-28 01:22:00,
2013-01-27 20:27:00,33.8,-17.1,29.51,North,0,0.0,0.0,1,0.11,,,0.17,WUHU216HW,2013-01-28 01:27:00,
2013-01-27 20:32:00,33.8,-17.1,29.51,North,0,0.0,0.0,1,0.11,,,0.17,WUHU216HW,2013-01-28 01:32:00,
2013-01-27 20:37:00,33.7,-17.2,29.50,North,0,0.0,0.0,1,0.09,,,0.17,WUHU216HW,2013-01-28 01:37:00,
2013-01-27 20:42:00,33.7,-17.2,29.50,North,0,0.0,0.0,1,0.09,,,0.18,WUHU216HW,2013-01-28 01:42:00,
2013-01-27 20:47:00,33.7,-17.2,29.50,North,0,0.0,0.0,1,0.08,,,0.18,WUHU216HW,2013-01-28 01:47:00,
2013-01-27 20:53:00,33.7,-17.2,29.50,North,0,0.0,0.0,1,0.08,,,0.18,WUHU216HW,2013-01-28 01:53:00,
2013-01-27 20:58:00,33.7,-17.2,29.50,North,0,0.0,0.0,1,0.07,,,0.19,WUHU216HW,2013-01-28 01:58:00,
2013-01-27 21:03:00,33.7,-17.2,29.50,North,0,0.0,0.0,1,0.06,,,0.19,WUHU216HW,2013-01-28 02:03:00,
2013-01-27 21:08:00,33.7,-17.2,29.50,North,0,0.0,0.0,1,0.06,,,0.20,WUHU216HW,2013-01-28 02:08:00,
2013-01-27 21:13:00,33.8,-17.1,29.49,North,0,0.0,0.0,1,0.05,,,0.20,WUHU216HW,2013-01-28 02:13:00,
2013-01-27 21:18:00,33.8,-17.1,29.49,North,0,0.0,0.0,1,0.05,,,0.20,WUHU216HW,2013-01-28 02:18:00,
2013-01-27 21:23:00,33.8,-17.1,29.49,North,0,0.0,0.0,1,0.04,,,0.20,WUHU216HW,2013-01-28 02:23:00,
2013-01-27 21:28:00,34.0,-16.9,29.49,North,0,0.0,0.0,1,0.04,,,0.20,WUHU216HW,2013-01-28 02:28:00,
2013-01-27 21:33:00,34.0,-16.9,29.48,North,0,0.0,0.0,1,0.04,,,0.22,WUHU216HW,2013-01-28 02:33:00,
2013-01-27 21:38:00,34.2,-16.8,29.48,North,0,0.0,0.0,1,0.03,,,0.22,WUHU216HW,2013-01-28 02:38:00,
2013-01-27 21:43:00,34.2,-16.8,29.48,North,0,0.0,0.0,1,0.04,,,0.22,WUHU216HW,2013-01-28 02:43:00,
2013-01-27 21:48:00,34.2,-16.8,29.47,North,0,0.0,0.0,1,0.04,,,0.22,WUHU216HW,2013-01-28 02:48:00,
2013-01-27 21:53:00,34.2,-16.8,29.46,North,0,0.0,0.0,1,0.04,,,0.22,WUHU216HW,2013-01-28 02:53:00,
2013-01-27 21:58:00,34.4,-16.6,29.46,North,0,0.0,0.0,1,0.04,,,0.24,WUHU216HW,2013-01-28 02:58:00,
2013-01-27 22:03:00,34.6,-16.6,29.45,North,0,0.0,0.0,1,0.05,,,0.24,WUHU216HW,2013-01-28 03:03:00,
2013-01-27 22:08:00,34.7,-16.4,29.45,North,0,0.0,0.0,1,0.04,,,0.24,WUHU216HW,2013-01-28 03:08:00,
2013-01-27 22:13:00,34.9,-16.2,29.44,North,0,0.0,0.0,1,0.05,,,0.24,WUHU216HW,2013-01-28 03:13:00,
2013-01-27 22:18:00,35.1,-16.1,29.44,North,0,0.0,0.0,1,0.05,,,0.26,WUHU216HW,2013-01-28 03:18:00,
2013-01-27 22:23:00,35.3,-15.9,29.44,North,0,0.0,0.0,1,0.06,,,0.27,WUHU216HW,2013-01-28 03:23:00,
2013-01-27 22:28:00,35.5,-15.8,29.43,North,0,0.0,0.0,1,0.06,,,0.27,WUHU216HW,2013-01-28 03:28:00,
2013-01-27 22:33:00,35.5,-15.8,29.43,North,0,0.0,0.0,1,0.05,,,0.27,WUHU216HW,2013-01-28 03:33:00,
2013-01-27 22:38:00,35.6,-15.7,29.43,North,0,0.0,0.0,1,0.05,,,0.27,WUHU216HW,2013-01-28 03:38:00,
2013-01-27 22:43:00,35.8,-15.5,29.42,North,0,0.0,0.0,1,0.04,,,0.27,WUHU216HW,2013-01-28 03:43:00,
2013-01-27 22:48:00,36.0,-15.4,29.42,North,0,0.0,0.0,1,0.04,,,0.27,WUHU216HW,2013-01-28 03:48:00,
2013-01-27 22:53:00,36.4,-15.1,29.42,North,0,0.0,0.0,1,0.03,,,0.27,WUHU216HW,2013-01-28 03:53:00,
2013-01-27 22:58:00,36.4,-15.1,29.42,North,0,0.0,0.0,1,0.04,,,0.28,WUHU216HW,2013-01-28 03:58:00,
2013-01-27 23:03:00,36.5,-14.9,29.42,North,0,0.0,0.0,1,0.03,,,0.28,WUHU216HW,2013-01-28 04:03:00,
2013-01-27 23:08:00,36.5,-14.9,29.42,North,0,0.0,0.0,1,0.03,,,0.28,WUHU216HW,2013-01-28 04:08:00,
2013-01-27 23:14:00,36.9,-14.7,29.42,North,0,0.0,0.0,1,0.02,,,0.28,WUHU216HW,2013-01-28 04:14:00,
2013-01-27 23:19:00,36.7,-14.7,29.42,North,0,0.0,0.0,1,0.02,,,0.28,WUHU216HW,2013-01-28 04:19:00,
2013-01-27 23:24:00,36.9,-14.7,29.41,North,0,0.0,0.0,1,0.01,,,0.28,WUHU216HW,2013-01-28 04:24:00,
2013-01-27 23:29:00,37.1,-14.5,29.41,North,0,0.0,0.0,1,0.01,,,0.28,WUHU216HW,2013-01-28 04:29:00,
2013-01-27 23:34:00,37.3,-14.4,29.40,North,0,0.0,0.0,1,0.01,,,0.28,WUHU216HW,2013-01-28 04:34:00,
2013-01-27 23:39:00,37.3,-14.4,29.41,North,0,0.0,0.0,1,0.01,,,0.28,WUHU216HW,2013-01-28 04:39:00,
2013-01-27 23:44:00,37.4,-14.2,29.42,North,0,0.0,0.0,1,0.01,,,0.28,WUHU216HW,2013-01-28 04:44:00,
2013-01-27 23:49:00,37.6,-14.0,29.43,North,0,0.0,0.0,1,0.01,,,0.28,WUHU216HW,2013-01-28 04:49:00,
2013-01-27 23:54:00,37.8,-13.9,29.42,North,0,0.0,0.0,1,0.00,,,0.28,WUHU216HW,2013-01-28 04:54:00,
2013-01-27 23:59:00,38.0,-13.8,29.42,North,0,0.0,0.0,1,0.00,,,0.28,WUHU216HW,2013-01-28 04:59:00,